DW2607 Weather Reports


time (UTC)temp
C
wind
direction
speed
KPH
gust
KPH
rain 1hr
cm
rain 24hr
cm
rain mn
cm
humidity
%
barometer
mb
20260507032519 13 0.0 3.2 0.00 0.00 0.00 82 1018.8
20260507031520 13 0.0 3.2 0.00 0.00 0.00 81 1018.7
20260507030520 13 0.0 0.0 0.00 0.00 0.00 82 1018.7
20260507025518 13 0.0 0.0 0.00 0.00 0.00 82 1018.7
20260507024518 13 0.0 0.0 0.00 0.00 0.00 81 1018.6
20260507023518 13 0.0 0.0 0.00 0.00 0.00 80 1018.5
20260507022600 13 0.0 3.2 0.00 0.00 0.00 80 1018.5
20260507021518 13 0.0 0.0 0.00 0.00 0.00 81 1018.5
20260507020519 13 0.0 3.2 0.00 0.00 0.00 80 1018.4
20260507015518 13 0.0 3.2 0.00 0.00 0.00 79 1018.4
20260507014519 13 0.0 3.2 0.00 0.00 0.00 79 1018.4
20260507013518 13 0.0 3.2 0.00 0.00 0.00 79 1018.4
20260507012518 13 0.0 3.2 0.00 0.00 0.00 78 1018.4
20260507011519 14 0.0 3.2 0.00 0.00 0.00 78 1018.5
20260507010520 14 0.0 3.2 0.00 0.00 0.00 78 1018.6
20260507005518 14 0.0 3.2 0.00 0.00 0.00 78 1018.6
20260507004519 14 0.0 3.2 0.00 0.00 0.00 77 1018.6
20260507003518 14 180 1.6 6.4 0.00 0.00 0.00 77 1018.6
20260507002519 14 0.0 3.2 0.00 0.00 0.00 77 1018.5
20260507001519 14 0.0 3.2 0.00 0.00 0.00 77 1018.5
20260507000523 14 0.0 3.2 0.00 0.00 0.00 78 1018.5
20260506235518 14 0.0 3.2 0.00 0.00 0.00 77 1018.5
20260506234518 14 0.0 3.2 0.00 0.00 0.00 78 1018.5
20260506233518 14 0.0 3.2 0.00 0.00 0.00 78 1018.6
20260506232518 14 0.0 3.2 0.00 0.00 0.00 77 1018.7
20260506231539 14 0.0 3.2 0.00 0.00 0.00 78 1018.6
20260506230519 14 180 1.6 8.0 0.00 0.00 0.00 77 1018.6
20260506225519 14 0.0 3.2 0.00 0.00 0.00 77 1018.7
20260506224518 14 0.0 3.2 0.00 0.00 0.00 78 1018.7
20260506223518 14 0.0 3.2 0.00 0.00 0.00 76 1018.8
20260506222520 14 0.0 3.2 0.00 0.00 0.00 78 1018.7
20260506221518 14 0.0 0.0 0.00 0.00 0.00 78 1018.7
20260506220517 13 0.0 3.2 0.00 0.00 0.00 78 1018.9
20260506215517 13 180 1.6 9.7 0.00 0.00 0.00 77 1018.8
20260506214518 13 0.0 0.0 0.00 0.00 0.00 77 1018.8
20260506213518 13 0.0 3.2 0.00 0.00 0.00 76 1018.8
20260506212517 14 0.0 4.8 0.00 0.00 0.00 76 1018.7
20260506211519 13 0.0 4.8 0.00 0.00 0.00 76 1018.9
20260506210518 13 0.0 1.6 0.00 0.00 0.00 77 1019.0
20260506205517 13 0.0 3.2 0.00 0.00 0.00 76 1019.0
20260506204519 13 0.0 1.6 0.00 0.00 0.00 76 1018.8
20260506203517 13 180 1.6 8.0 0.00 0.00 0.00 75 1018.8
20260506202518 13 0.0 3.2 0.00 0.00 0.00 76 1018.8
20260506201519 13 135 1.6 6.4 0.00 0.00 0.00 77 1018.8
20260506200519 13 180 3.2 9.7 0.00 0.00 0.00 77 1018.7
20260506195518 13 0.0 3.2 0.00 0.00 0.00 77 1018.7
20260506194518 13 0.0 8.0 0.00 0.00 0.00 78 1018.7
20260506193538 13 180 1.6 6.4 0.00 0.00 0.00 78 1018.6
20260506192523 13 180 1.6 4.8 0.00 0.00 0.00 78 1018.6
20260506191538 12 158 1.6 8.0 0.00 0.00 0.00 79 1018.6
20260506190601 12 180 1.6 11.3 0.00 0.00 0.00 81 1018.5
20260506185517 12 0.0 4.8 0.00 0.00 0.00 81 1018.5
20260506184517 12 180 1.6 8.0 0.00 0.00 0.00 81 1018.4
20260506183517 12 203 1.6 6.4 0.00 0.00 0.00 83 1018.5
20260506182517 12 158 3.2 11.3 0.00 0.00 0.00 83 1018.5
20260506181517 12 0.0 9.7 0.00 0.00 0.00 84 1018.5
20260506180517 12 0.0 4.8 0.00 0.00 0.00 85 1018.4
20260506175541 12 0.0 4.8 0.00 0.00 0.00 84 1018.5
20260506174517 12 180 1.6 8.0 0.00 0.00 0.00 84 1018.4
20260506173517 12 0.0 4.8 0.00 0.00 0.00 84 1018.0
20260506172517 12 180 1.6 4.8 0.00 0.00 0.00 85 1018.0
20260506171517 12 180 3.2 11.3 0.00 0.00 0.00 86 1018.2
20260506170517 12 158 1.6 9.7 0.00 0.00 0.00 86 1018.4
20260506165517 12 0.0 3.2 0.00 0.00 0.00 84 1018.1
20260506164518 12 0.0 4.8 0.00 0.00 0.00 84 1018.1
20260506163537 12 113 1.6 6.4 0.00 0.00 0.00 85 1018.2
20260506162517 12 0.0 3.2 0.00 0.00 0.00 85 1018.1
20260506161517 12 0.0 4.8 0.00 0.00 0.00 87 1018.0
20260506160517 11 0.0 4.8 0.00 0.00 0.00 87 1017.9
20260506155517 12 180 1.6 9.7 0.00 0.00 0.00 87 1017.5
20260506154517 11 0.0 4.8 0.00 0.00 0.00 87 1017.5
20260506153517 12 0.0 6.4 0.00 0.00 0.00 88 1017.5
20260506152517 11 180 3.2 14.5 0.00 0.00 0.00 89 1017.6
20260506151517 11 203 1.6 9.7 0.00 0.00 0.00 89 1017.7
20260506150557 11 158 1.6 6.4 0.00 0.00 0.00 89 1017.7
20260506145518 11 0.0 3.2 0.00 0.00 0.00 90 1017.9
20260506144540 11 158 1.6 6.4 0.00 0.00 0.00 89 1017.7
20260506143517 11 180 1.6 6.4 0.00 0.00 0.00 90 1017.2
20260506142537 11 0.0 3.2 0.00 0.00 0.00 90 1017.5
20260506141517 11 0.0 3.2 0.00 0.00 0.00 91 1017.5
20260506140517 11 0.0 3.2 0.00 0.00 0.00 91 1017.6
20260506135517 11 158 1.6 8.0 0.00 0.00 0.00 91 1017.5
20260506134517 11 0.0 4.8 0.00 0.00 0.00 91 1017.4
20260506133517 11 0.0 3.2 0.00 0.00 0.00 91 1017.4
20260506132517 11 0.0 3.2 0.00 0.00 0.00 91 1017.5
20260506131517 11 0.0 3.2 0.00 0.00 0.00 91 1017.2
20260506130517 11 0.0 3.2 0.00 0.00 0.00 90 1017.4
20260506125602 11 0.0 1.6 0.00 0.00 0.00 90 1017.2
20260506124519 11 0.0 4.8 0.00 0.00 0.00 90 1017.1
20260506123517 11 135 1.6 4.8 0.00 0.00 0.00 89 1016.8
20260506122517 11 0.0 4.8 0.00 0.00 0.00 89 1017.1
20260506121517 11 0.0 6.4 0.00 0.00 0.00 89 1016.9
20260506120540 11 0.0 3.2 0.00 0.00 0.00 89 1016.8
20260506115722 11 180 1.6 4.8 0.00 0.00 0.00 88 1016.7
20260506114538 11 158 1.6 8.0 0.00 0.00 0.00 89 1016.7
20260506113518 11 158 1.6 11.3 0.00 0.00 0.00 89 1016.7
20260506112539 11 0.0 3.2 0.00 0.00 0.00 89 1016.6
20260506111518 11 0.0 3.2 0.00 0.00 0.00 90 1016.4
20260506110517 11 0.0 4.8 0.00 0.00 0.00 90 1016.4
20260506105517 11 0.0 8.0 0.00 0.00 0.00 90 1016.4
20260506104517 11 0.0 3.2 0.00 0.00 0.00 91 1016.3
20260506103516 11 0.0 3.2 0.00 0.00 0.00 91 1016.2
20260506102518 11 0.0 3.2 0.00 0.00 0.00 92 1016.2
20260506101517 11 0.0 3.2 0.00 0.00 0.00 92 1016.2
20260506100538 10 0.0 3.2 0.00 0.00 0.00 92 1016.2
20260506095517 10 0.0 1.6 0.00 0.00 0.00 91 1016.2
20260506094518 10 0.0 3.2 0.00 0.00 0.00 92 1016.0
20260506093517 11 0.0 3.2 0.00 0.00 0.00 92 1016.0
20260506092516 11 0.0 0.0 0.00 0.00 0.00 92 1015.8
20260506091518 11 0.0 0.0 0.00 0.00 0.00 92 1015.8
20260506090516 11 0.0 0.0 0.00 0.00 0.00 92 1015.8
20260506085516 11 0.0 0.0 0.00 0.00 0.00 92 1015.6
20260506084517 11 0.0 0.0 0.00 0.00 0.00 92 1015.6
20260506083518 11 0.0 0.0 0.00 0.00 0.00 92 1015.5
20260506082519 11 0.0 0.0 0.00 0.00 0.00 91 1015.4
20260506081600 11 0.0 0.0 0.00 0.00 0.00 91 1015.4
20260506080522 11 0.0 0.0 0.00 0.00 0.00 91 1015.3
20260506072523 12 0.0 0.0 0.00 0.00 0.00 88 1015.0
20260506071540 12 0.0 0.0 0.00 0.00 0.00 88 1014.9
20260506070518 12 0.0 0.0 0.00 0.00 0.00 87 1014.8
20260506061536 13 0.0 0.0 0.00 0.00 0.00 86 1014.6
20260506060537 13 0.0 0.0 0.00 0.00 0.00 85 1014.6
20260506050518 15 0.0 3.2 0.00 0.00 0.00 81 1013.8
20260506044519 15 0.0 3.2 0.00 0.00 0.00 80 1013.7
20260506043518 15 0.0 4.8 0.00 0.00 0.00 80 1013.6
20260506042519 15 0.0 0.0 0.00 0.00 0.00 80 1013.6
20260506041518 15 0.0 3.2 0.00 0.00 0.00 80 1013.6
20260506040518 15 0.0 4.8 0.00 0.00 0.00 80 1013.5
20260506035519 15 0.0 3.2 0.00 0.00 0.00 80 1013.5
20260506034518 15 0.0 0.0 0.00 0.00 0.00 79 1013.4
20260506033558 15 0.0 0.0 0.00 0.00 0.00 79 1013.2